Mount Holly, NJ

11:23 PM EST on November 21, 2017 (GMT -0500)
South Jersey Regional

Weather History for KVAY - May, 2014

Change the Weather History Date:

Thursday, May 15, 2014

  Actual Average (KPNE) Record (KPNE)
Temperature  
Mean Temperature 68 °F -  
Max Temperature 80 °F 69 °F 87 °F (2004)
Min Temperature 57 °F 49 °F 42 °F (1999)
Cooling Degree Days 4    
Growing Degree Days 18 (Base 50)    
Moisture  
Dew Point 65 °F    
Average Humidity 84    
Maximum Humidity 100    
Minimum Humidity 66    
Precipitation  
Precipitation 0.03 in - - ()
Sea Level Pressure  
Sea Level Pressure 30.13 in    
Wind  
Wind Speed 5 mph (SE)    
Max Wind Speed 14 mph    
Max Gust Speed 26 mph    
Visibility 6 miles    
Events Fog , Rain    
Averages and records for this station are not official NWS values.
T = Trace of Precipitation, MM = Missing Value Source: NWS Daily Summary

Daily Weather History Graph

Daily Weather History Graph

Search for Another Location

Airport or City:

Trip Planner

Search our weather history database for the weather conditions in past years. The results will help you decide how hot, cold, wet, or windy it might be!

Date:

Astronomy

May. 15, 2014 Rise Set
Actual Time 5:44 AM EDT 8:07 PM EDT
Civil Twilight 5:13 AM EDT 8:38 PM EDT
Nautical Twilight 4:35 AM EDT 9:16 PM EDT
Astronomical Twilight 3:54 AM EDT 9:58 PM EDT
Moon 9:13 PM EDT (5/15) 6:29 AM EDT (5/15)
Length of Visible Light 15h 24m
Length of Day
14h 23m
Full, 99% of the Moon is Illuminated
May 15
Full
May 21
Last Quarter
May 28
New
Jun 5
First Quarter
Jun 13
Full

Hourly Weather History & Observations

Time (EDT) Temp. Heat Index Dew Point Humidity Pressure Visibility Wind Dir Wind Speed Gust Speed Precip Events Conditions
12:54 AM 57.0 °F - 57.0 °F 100% 30.21 in 0.5 mi Variable 3.5 mph - N/A Fog Fog
1:54 AM 57.9 °F - 57.0 °F 97% 30.20 in 0.2 mi Calm Calm - N/A Fog Fog
2:54 AM 57.9 °F - 57.0 °F 97% 30.17 in 0.2 mi East 4.6 mph - N/A Fog Fog
3:54 AM 59.0 °F - 57.9 °F 96% 30.17 in 0.2 mi Calm Calm - N/A Fog Fog
4:54 AM 60.1 °F - 59.0 °F 96% 30.16 in 0.2 mi Calm Calm - N/A Fog Fog
5:54 AM 61.0 °F - 60.1 °F 97% 30.16 in 0.2 mi East 3.5 mph - N/A Fog Fog
6:24 AM 63.0 °F - 62.1 °F 97% 30.16 in 1.2 mi SSE 4.6 mph - N/A   Overcast
6:29 AM 64.0 °F - 63.0 °F 96% 30.16 in 3.0 mi Variable 4.6 mph - N/A   Overcast
6:54 AM 64.0 °F - 64.0 °F 100% 30.16 in 3.0 mi SSE 5.8 mph - N/A   Overcast
7:54 AM 64.9 °F - 64.0 °F 97% 30.17 in 4.0 mi Variable 3.5 mph - N/A   Overcast
8:15 AM 66.0 °F - 64.0 °F 93% 30.17 in 4.0 mi Variable 4.6 mph - N/A   Overcast
8:41 AM 68.0 °F - 64.9 °F 90% 30.17 in 5.0 mi South 5.8 mph - N/A   Overcast
8:54 AM 68.0 °F - 64.9 °F 90% 30.17 in 6.0 mi SSE 4.6 mph - N/A   Overcast
9:54 AM 70.0 °F - 66.0 °F 87% 30.17 in 7.0 mi Variable 3.5 mph - N/A   Overcast
10:54 AM 72.0 °F - 66.9 °F 84% 30.16 in 7.0 mi Variable 4.6 mph - N/A   Overcast
11:13 AM 73.0 °F - 66.9 °F 81% 30.16 in 8.0 mi Calm Calm - N/A   Overcast
11:41 AM 75.0 °F - 68.0 °F 79% 30.16 in 9.0 mi East 4.6 mph - N/A   Overcast
12:06 PM 78.1 °F - 68.0 °F 71% 30.14 in 10.0 mi Variable 5.8 mph - N/A   Mostly Cloudy
12:23 PM 80.1 °F 82.7 °F 68.0 °F 67% 30.13 in 9.0 mi SSE 8.1 mph 17.3 mph N/A   Mostly Cloudy
12:47 PM 78.1 °F - 66.0 °F 66% 30.12 in 10.0 mi SSE 9.2 mph 20.7 mph N/A   Overcast
12:54 PM 75.0 °F - 66.9 °F 76% 30.13 in 2.0 mi SSE 11.5 mph 26.5 mph 0.03 in Rain Light Rain
1:01 PM 75.0 °F - 70.0 °F 84% 30.13 in 2.5 mi SSE 9.2 mph 19.6 mph 0.00 in Rain Light Rain
1:08 PM 75.9 °F - 70.0 °F 82% 30.13 in 10.0 mi SSE 10.4 mph 18.4 mph 0.00 in   Mostly Cloudy
1:54 PM 78.1 °F - 66.9 °F 68% 30.11 in 9.0 mi SE 13.8 mph 25.3 mph 0.00 in   Mostly Cloudy
3:35 PM 79.0 °F - 68.0 °F 69% 30.08 in 10.0 mi SE 11.5 mph 19.6 mph N/A   Overcast
3:54 PM 78.1 °F - 66.9 °F 68% 30.08 in 10.0 mi SE 9.2 mph 19.6 mph N/A   Overcast
4:09 PM 78.1 °F - 66.0 °F 66% 30.08 in 10.0 mi SSE 8.1 mph 21.9 mph N/A   Overcast
4:54 PM 75.9 °F - 66.9 °F 74% 30.08 in 10.0 mi SSE 8.1 mph 20.7 mph 0.00 in   Scattered Clouds
5:54 PM 75.0 °F - 66.9 °F 76% 30.08 in 10.0 mi SSE 10.4 mph 18.4 mph N/A   Scattered Clouds
6:28 PM 73.9 °F - 66.0 °F 76% 30.08 in 10.0 mi SSE 8.1 mph 18.4 mph N/A   Mostly Cloudy
6:54 PM 73.0 °F - 66.0 °F 79% 30.08 in 10.0 mi SSE 10.4 mph 17.3 mph N/A   Mostly Cloudy
7:49 PM 71.6 °F - 66.2 °F 83% 30.08 in 9.0 mi Variable 4.6 mph - N/A   Overcast
7:54 PM 71.1 °F - 66.0 °F 84% 30.08 in 9.0 mi SE 8.1 mph - N/A   Overcast
8:17 PM 71.1 °F - 64.9 °F 81% 30.07 in 10.0 mi SSE 6.9 mph - N/A   Overcast
8:45 PM 70.0 °F - 64.9 °F 84% 30.07 in 10.0 mi SSE 8.1 mph - N/A   Overcast
8:54 PM 70.0 °F - 64.9 °F 84% 30.07 in 10.0 mi SE 6.9 mph - N/A   Overcast
10:54 PM 69.1 °F - 64.0 °F 84% 30.05 in 9.0 mi Variable 4.6 mph - N/A   Overcast
11:54 PM 68.0 °F - 64.0 °F 87% 30.04 in 9.0 mi Variable 5.8 mph - N/A   Overcast